Location: Unspecified
(42.3650°N, 71.1030°W)
Time: 12:58:03
(UTC+00:00)

Vanguard 2 Rocket - Visible Passes

Search period start: 25 June 2024 00:00
Search period end: 05 July 2024 00:00
Orbit: 554 x 3304 km, 32.9° (Epoch: 24 June)

Date Brightness Start Highest point End Pass type
(mag) Time Alt. Az. Time Alt. Az. Time Alt. Az.
25 Jun 10.0 03:50:43 24° SE 03:52:04 24° SE 04:05:51 10° E visible
25 Jun 9.7 05:56:10 27° SSW 06:07:02 49° SSE 06:25:06 10° E visible
25 Jun 9.7 08:04:31 10° WSW 08:24:07 63° S 08:40:45 10° ESE visible
26 Jun 10.3 02:50:32 15° ESE 02:50:32 15° ESE 02:57:30 10° E visible
26 Jun 9.6 04:55:58 32° S 05:02:40 40° SSE 05:20:16 10° E visible
26 Jun 9.6 07:01:24 12° WSW 07:19:08 60° S 07:37:09 10° E visible
27 Jun 9.7 03:55:38 29° SSE 03:58:49 31° SE 04:14:37 10° E visible
27 Jun 9.6 06:01:03 22° SW 06:14:15 55° SSE 06:33:00 10° E visible
27 Jun 9.7 08:12:05 10° WSW 08:31:36 63° S 08:48:33 10° ESE visible
28 Jun 9.9 02:55:07 21° SE 02:55:33 21° SE 03:07:45 10° E visible
28 Jun 9.6 05:00:31 29° SSW 05:09:41 47° SSE 05:28:14 10° E visible
28 Jun 9.6 07:07:58 10° WSW 07:26:33 63° S 07:44:56 10° E visible
29 Jun 10.2 01:54:18 12° ESE 01:54:18 12° ESE 01:57:47 10° ESE visible
29 Jun 9.5 03:59:40 30° S 04:05:40 38° SE 04:22:50 10° E visible
29 Jun 9.5 06:05:01 12° WSW 06:21:33 60° SSE 06:40:45 10° E visible
29 Jun 9.7 08:19:45 10° W 08:39:02 62° S 08:56:12 10° ESE visible
30 Jun 9.5 02:58:10 25° SSE 03:02:15 28° SE 03:16:36 10° E visible
30 Jun 9.5 05:03:25 16° SW 05:16:51 54° SSE 05:36:00 10° E visible
30 Jun 9.6 07:15:36 10° WSW 07:33:58 64° S 07:52:37 10° ESE visible
01 Jul 9.8 01:51:45 10° SSE 01:59:25 18° SE 02:09:03 10° E visible
01 Jul 9.4 03:59:23 10° SW 04:12:39 45° SSE 04:30:42 10° E visible
01 Jul 9.5 06:12:02 10° WSW 06:28:55 63° S 06:48:25 10° E visible
01 Jul 9.7 08:27:27 10° W 08:46:22 58° SSW 09:03:40 10° ESE visible
02 Jul 9.4 02:57:54 10° SSW 03:09:04 35° SE 03:24:49 10° E visible
02 Jul 9.4 05:09:03 10° WSW 05:24:07 58° SSE 05:43:39 10° E visible
02 Jul 9.6 07:23:18 10° W 07:41:23 62° S 08:00:09 10° ESE visible
03 Jul 9.5 01:57:19 10° S 02:06:07 24° SE 02:18:10 10° E visible
03 Jul 9.3 04:06:38 10° SW 04:19:47 51° SSE 04:38:23 10° E visible
03 Jul 9.5 06:19:44 10° WSW 06:36:20 63° S 06:55:58 10° ESE visible
03 Jul 9.7 08:35:13 10° W 08:53:34 52° SSW 09:10:52 10° SE visible
04 Jul 9.7 00:58:38 10° SSE 01:03:42 14° SE 01:09:50 10° ESE visible
04 Jul 9.2 03:04:51 10° SSW 03:16:03 41° SSE 03:32:40 10° E visible
04 Jul 9.3 05:16:40 10° WSW 05:31:30 61° S 05:51:12 10° E visible
04 Jul 9.6 07:31:05 10° W 07:48:43 58° SSW 08:07:29 10° ESE visible
